GPS BIIR-7 (PRN 18)

Last updated on March 6, 2018, 12:20 a.m. UTC

1 26690U 01004A   18064.43307281 -.00000015  00000-0  00000+0 0  9991
2 26690  53.0888 146.9091 0188719 260.1147 155.8507  2.00564838125254
UTC
Height (km)
Latitude
Longitude
Inclination
Orbital Period
UTC large
Height (km)
Speed (km/s)
/
Latitude / Longitude
Inclination (degrees)
Orbital Period (minutes)
Azimuth
Elevation
Range (km)
Doppler Factor
iOS Compass Heading
iOS Angle

Next 30 passes for location: Hong Kong

Rise time Rise Azimuth (degrees) Set time Set Azimuth (degrees) Duration Max altitude (degrees)

No matching passes for this satellites